Regional Weather Roundup
Issued by NWS Newport/Morehead, NC

Home | Current Version | Previous Version | Text Only | Print | Product List | Glossary On
Versions: 1 2 3 4 5 6 7 8 9 10 11 12 13 14 15 16 17 18 19 20 21 22 23 24 25 26 27 28 29 30 31 32 33 34 35 36 37 38 39 40 41 42 43 44 45 46 47 48 49 50
000
ASUS42 KMHX 021525
RWRMHX
WEATHER ROUNDUP FOR EASTERN NORTH CAROLINA
NATIONAL WEATHER SERVICE NEWPORT/MOREHEAD CITY NC
1100 AM EDT TUE JUN 02 2015

NOTE: "FAIR" INDICATES FEW OR NO CLOUDS BELOW 12,000 FEET
WITH NO SIGNIFICANT WEATHER AND/OR OBSTRUCTIONS TO VISIBILITY

NCZ015>017-031-032-045>047-102-103-021600-
NORTH COAST

CITY           SKY/WX    TMP DP  RH WIND       PRES   REMARKS
EDENTON          N/A     82  70  66 SW9       30.02S
ELIZABETH CITY PTSUNNY   81  70  69 S13       30.01F
KITTY HAWK     PTSUNNY   82  68  62 SW3       30.01F
MANTEO         PTSUNNY   81  71  72 S13       30.03S

$$

NCZ045>047-081-094-103-104-021600-
CENTRAL COAST

CITY           SKY/WX    TMP DP  RH WIND       PRES   REMARKS
FRISCO         PTSUNNY   80  69  69 SW8       30.05S
SWANQUARTER      N/A     82 N/A N/A S8G14     30.00S

$$

NCZ095-097-098-100-101-021600-
SOUTHERN COAST

CITY           SKY/WX    TMP DP  RH WIND       PRES   REMARKS
BEAUFORT       MOSUNNY   80  72  76 SW10      30.04S
CEDAR ISLAND     N/A     86 N/A N/A S10       30.09R
JACKSONVILLE   MOSUNNY   83  68  60 VRB5      30.02S
PINEY ISLAND   PTSUNNY  N/A N/A N/A SW12      30.04R
WILMINGTON     FAIR      82  67  60 CALM      30.03F


$$

NCZ011>013-027>030-043-044-078>080-089-090>093-098-021600-
COASTAL PLAIN

CITY           SKY/WX    TMP DP  RH WIND       PRES   REMARKS
AHOSKIE        PTSUNNY   79  69  71 CALM      30.02S
CLINTON        PTSUNNY   80  69  70 W5        30.04S
ELIZABETHTOWN  MOSUNNY   82  67  60 SW8       30.04S
GOLDSBORO      PTSUNNY   82  68  62 SW9       30.01R
GREENVILLE     MOSUNNY   82  70  65 SW5       30.03S
HAVELOCK       MOSUNNY   81  68  64 S7        30.04S
KENANSVILLE    PTSUNNY   81  66  60 SW5       30.04S
KINSTON        NOT AVBL
NEW BERN       MOSUNNY   84  68  58 SW8       30.03F
RICHLANDS      MOSUNNY   86  66  51 SW10      30.03S
ROCKY MOUNT    CLOUDY    79  68  69 W8        30.03R
WASHINGTON     MOSUNNY   82  69  63 SW6       30.02F
WHITEVILLE     PTSUNNY   80  67  64 W3        30.03S

$$

AMZ130-135-150-152-154-156-158-170-250-252-270-ANZ085-086-088-633-658-670-021600-
MARINE OBSERVATIONS

STATION/POSITION TIME  TEMP    WIND        PRES    WAVE   SWELL
                       AIR SEA DIR/SP/G            HT/PER HT/PER
                 (UTC) (F)     (DEG/KT/KT) (MB)    (FT/S) (FT/S)
CHESAPEAKE LIGHT 1500   71     190/ 13/ 13 1016.9
64 E VA BEACH    1450   73 71  180/  6/  6 1016.6    3/ 8   3/ 8
DUCK             1500   78 54  210/ 10/ 13 1015.5
2 E DUCK         1411      65                N/A     2/ 9
OREGON INLET     1500   77 78  180/ 10/ 13 1016.9
13E OREGON INLT  1500      76                N/A     3/ 8
HATTERAS CG      1500   79 78  220/  6/ 10 1017.1
DIAMOND BUOY     1450   78 81  240/  6/  8 1017.6    3/ 9   2/ 9
CAPE LOOKOUT     1500   78     200/  9/ 11 1017.2
BEAUFORT LAB     1500   78 77  190/  8/ 12 1016.5
30 SE NEW RVR IN 1408   78 77  190/  6/  8 1017.6
27 SE WRIGHTSVLE 1500      78  220/  6/  8   N/A
5 SE WRIGHTSVLE  1408   77 78  230/  6/  8 1017.3
225 S CAPE HAT   1450   76 78  210/  2/  4 1018.7    4/ 8   3/ 8
41 SE CHARLESTON 1450   75 80  170/ 14/ 16 1017.0    3/ 8   3/ 8

$$



USA.gov is the U.S. government's official web portal to all federal, state and local government web resources and services.